Weather History for Fort Collins, CO

Change the Weather History Date:

Wednesday, October 30, 2013

  Actual Average Record
Temperature  
Mean Temperature 39 °F -  
Max Temperature 46 °F 52 °F 75 °F (2007)
Min Temperature 32 °F 29 °F 15 °F (2002)
Degree Days  
Heating Degree Days 26    
Moisture  
Dew Point 33 °F    
Average Humidity 86    
Maximum Humidity 100    
Minimum Humidity 62    
Precipitation  
Precipitation 0.16 in - - ()
Sea Level Pressure  
Sea Level Pressure 29.87 in    
Wind  
Wind Speed 5 mph (South)    
Max Wind Speed 14 mph    
Max Gust Speed -    
Visibility 6 miles    
Events Thunderstorm    
Averages and records for this station are not official NWS values.
T = Trace of Precipitation, MM = Missing Value Source: NWS Daily Summary

Daily Weather History Graph

Daily Weather History Graph

Search for Another Location

Airport:

Trip Planner

Search our weather history database for the weather conditions in past years. The results will help you decide how hot, cold, wet, or windy it might be!

Date:

Astronomy

Oct. 30, 2013 Rise Set
Actual Time 7:27 AM MDT 5:58 PM MDT
Civil Twilight 6:59 AM MDT 6:27 PM MDT
Nautical Twilight 6:27 AM MDT 6:59 PM MDT
Astronomical Twilight 5:55 AM MDT 7:30 PM MDT
Moon 3:18 AM MDT (10/30) 3:46 PM MDT (10/30)
Length of Visible Light 11h 27m
Length of Day
10h 30m
Waning Crescent, 16% of the Moon is Illuminated
Oct 30
Waning Crescent
Nov 3
New
Nov 9
First Quarter
Nov 17
Full
Nov 25
Last Quarter

Hourly Weather History & Observations

Time (MDT) Temp. Windchill Dew Point Humidity Pressure Visibility Wind Dir Wind Speed Gust Speed Precip Events Conditions
12:15 AM 35.6 °F - 32.0 °F 87% 29.90 in 9.0 mi Calm Calm - N/A   Mostly Cloudy
12:35 AM 35.6 °F 28.0 °F 30.2 °F 81% 29.86 in 7.0 mi North 10.4 mph - N/A   Mostly Cloudy
12:55 AM 35.6 °F 29.2 °F 32.0 °F 87% 29.86 in 7.0 mi NNE 8.1 mph - N/A   Mostly Cloudy
1:15 AM 35.6 °F 27.5 °F 32.0 °F 87% 29.89 in 6.0 mi ESE 11.5 mph - N/A   Mostly Cloudy
1:35 AM 33.8 °F 27.0 °F 30.2 °F 87% 29.94 in 4.0 mi SE 8.1 mph - N/A Thunderstorm Overcast
1:55 AM 33.8 °F 25.8 °F 30.2 °F 87% 29.92 in 1.5 mi SE 10.4 mph - N/A Thunderstorm Overcast
2:15 AM 33.8 °F 24.3 °F 30.2 °F 87% 29.86 in 1.5 mi East 13.8 mph - N/A   Overcast
2:35 AM 33.8 °F 30.8 °F 30.2 °F 87% 29.88 in 4.0 mi South 3.5 mph - N/A   Overcast
2:55 AM 33.8 °F 28.6 °F 30.2 °F 87% 29.90 in 4.0 mi SSW 5.8 mph - N/A   Overcast
3:15 AM 33.8 °F 28.6 °F 30.2 °F 87% 29.90 in 4.0 mi SSW 5.8 mph - N/A   Overcast
3:35 AM 33.8 °F 27.7 °F 30.2 °F 87% 29.89 in 4.0 mi South 6.9 mph - N/A   Overcast
3:55 AM 33.8 °F 28.6 °F 30.2 °F 87% 29.89 in 5.0 mi SSW 5.8 mph - N/A   Overcast
4:15 AM 33.8 °F 28.6 °F 30.2 °F 87% 29.88 in 4.0 mi South 5.8 mph - 0.01 in   Overcast
4:35 AM 33.8 °F 30.8 °F 30.2 °F 87% 29.88 in 3.0 mi South 3.5 mph - 0.03 in   Overcast
4:55 AM 33.8 °F 29.6 °F 32.0 °F 93% 29.88 in 5.0 mi South 4.6 mph - 0.05 in   Overcast
5:15 AM 33.8 °F - 32.0 °F 93% 29.88 in 5.0 mi Calm Calm - 0.01 in   Overcast
5:35 AM 33.8 °F - 32.0 °F 93% 29.87 in 4.0 mi Calm Calm - 0.03 in   Overcast
5:55 AM 33.8 °F - 30.2 °F 87% 29.87 in 5.0 mi Calm Calm - 0.04 in   Scattered Clouds
6:15 AM 33.8 °F 29.6 °F 30.2 °F 87% 29.87 in 0.5 mi ENE 4.6 mph - N/A   Overcast
6:35 AM 33.8 °F 27.7 °F 30.2 °F 87% 29.86 in 2.5 mi East 6.9 mph - 0.01 in   Overcast
6:55 AM 33.8 °F 30.8 °F 32.0 °F 93% 29.87 in 10.0 mi SSE 3.5 mph - 0.02 in   Overcast
7:15 AM 33.8 °F 29.6 °F 30.2 °F 87% 29.87 in 10.0 mi South 4.6 mph - N/A   Overcast
7:35 AM 33.8 °F 30.8 °F 32.0 °F 93% 29.86 in 10.0 mi SSE 3.5 mph - 0.01 in   Overcast
7:55 AM 33.8 °F - 32.0 °F 93% 29.88 in 7.0 mi Calm Calm - 0.01 in   Overcast
8:15 AM 33.8 °F - 30.2 °F 87% 29.88 in 0.2 mi Calm Calm - 0.01 in   Overcast
8:35 AM 33.8 °F 30.8 °F 30.2 °F 87% 29.88 in 0.2 mi North 3.5 mph - 0.02 in   Overcast
8:55 AM 33.8 °F - 32.0 °F 93% 29.88 in 1.0 mi Calm Calm - 0.03 in   Overcast
9:15 AM 33.8 °F - 32.0 °F 93% 29.89 in 0.2 mi Calm Calm - N/A   Overcast
9:35 AM 33.8 °F - 32.0 °F 93% 29.89 in 1.5 mi Calm Calm - 0.01 in   Overcast
9:55 AM 33.8 °F - 32.0 °F 93% 29.89 in 3.0 mi Calm Calm - 0.01 in   Overcast
10:15 AM 33.8 °F 30.8 °F 33.8 °F 100% 29.89 in 1.0 mi ESE 3.5 mph - N/A   Overcast
10:35 AM 33.8 °F 30.8 °F 33.8 °F 100% 29.89 in 0.8 mi SE 3.5 mph - N/A   Overcast
10:55 AM 35.6 °F - 33.8 °F 93% 29.89 in 0.8 mi Calm Calm - N/A   Overcast
11:15 AM 35.6 °F 31.7 °F 33.8 °F 93% 29.90 in 3.0 mi South 4.6 mph - N/A   Overcast
11:35 AM 35.6 °F - 33.8 °F 93% 29.89 in 2.5 mi Calm Calm - N/A   Overcast
11:55 AM 35.6 °F 31.7 °F 33.8 °F 93% 29.89 in 5.0 mi South 4.6 mph - N/A   Overcast
12:15 PM 35.6 °F - 35.6 °F 100% 29.89 in 6.0 mi Calm Calm - N/A   Overcast
12:35 PM 37.4 °F - 33.8 °F 87% 29.88 in 8.0 mi Calm Calm - N/A   Overcast
12:55 PM 37.4 °F 34.9 °F 35.6 °F 93% 29.87 in 9.0 mi South 3.5 mph - N/A   Overcast
1:15 PM 41.0 °F 38.0 °F 37.4 °F 87% 29.86 in 10.0 mi SSW 4.6 mph - N/A   Scattered Clouds
1:35 PM 41.0 °F - 35.6 °F 81% 29.85 in 10.0 mi Calm Calm - N/A   Scattered Clouds
1:55 PM 39.2 °F 35.0 °F 35.6 °F 87% 29.85 in 10.0 mi WSW 5.8 mph - N/A   Overcast
2:15 PM 41.0 °F 37.1 °F 35.6 °F 81% 29.84 in 10.0 mi SW 5.8 mph - N/A   Mostly Cloudy
2:35 PM 42.8 °F 41.1 °F 35.6 °F 76% 29.84 in 10.0 mi West 3.5 mph - N/A   Scattered Clouds
2:55 PM 42.8 °F 40.1 °F 37.4 °F 81% 29.84 in 10.0 mi West 4.6 mph - N/A   Mostly Cloudy
3:35 PM 46.4 °F 43.5 °F 35.6 °F 66% 29.84 in 10.0 mi South 5.8 mph - N/A   Scattered Clouds
3:55 PM 46.4 °F 42.4 °F 33.8 °F 62% 29.83 in 10.0 mi South 8.1 mph - N/A   Mostly Cloudy
4:15 PM 44.6 °F 39.7 °F 35.6 °F 71% 29.84 in 10.0 mi South 9.2 mph - N/A   Partly Cloudy
4:35 PM 44.6 °F 39.7 °F 35.6 °F 71% 29.83 in 10.0 mi South 9.2 mph - N/A   Scattered Clouds
5:15 PM 42.8 °F 39.3 °F 35.6 °F 76% 29.84 in 10.0 mi South 5.8 mph - N/A   Clear
5:35 PM 44.6 °F 40.2 °F 35.6 °F 71% 29.85 in 10.0 mi South 8.1 mph - N/A   Clear
5:55 PM 42.8 °F 39.3 °F 35.6 °F 76% 29.86 in 10.0 mi SSW 5.8 mph - N/A   Clear
6:15 PM 41.0 °F - 35.6 °F 81% 29.87 in 10.0 mi Calm Calm - N/A   Clear
6:55 PM 39.2 °F 37.0 °F 33.8 °F 81% 29.88 in 10.0 mi East 3.5 mph - N/A   Clear
7:15 PM 39.2 °F - 33.8 °F 81% 29.89 in 10.0 mi Calm Calm - N/A   Clear
7:35 PM 37.4 °F 31.4 °F 32.0 °F 81% 29.89 in 10.0 mi South 8.1 mph - N/A   Clear
7:55 PM 35.6 °F 29.2 °F 30.2 °F 81% 29.88 in 10.0 mi South 8.1 mph - N/A   Clear
8:15 PM 37.4 °F 34.9 °F 33.8 °F 87% 29.88 in 10.0 mi South 3.5 mph - N/A   Partly Cloudy
8:35 PM 35.6 °F - 30.2 °F 81% 29.87 in 10.0 mi Calm Calm - N/A   Clear
8:55 PM 37.4 °F - 33.8 °F 87% 29.87 in 10.0 mi Calm Calm - N/A   Clear
9:15 PM 35.6 °F 32.8 °F 32.0 °F 87% 29.86 in 10.0 mi North 3.5 mph - N/A   Clear
9:55 PM 35.6 °F 32.8 °F 32.0 °F 87% 29.86 in 6.0 mi North 3.5 mph - N/A   Clear
10:35 PM 35.6 °F 29.9 °F 32.0 °F 87% 29.86 in 7.0 mi NE 6.9 mph - N/A   Clear
10:55 PM 32.0 °F - 30.2 °F 93% 29.87 in 5.0 mi Calm Calm - N/A   Clear
11:35 PM 33.8 °F - 30.2 °F 87% 29.85 in 1.2 mi Calm Calm - N/A   Clear
11:55 PM 32.0 °F - 30.2 °F 93% 29.85 in 3.0 mi Calm Calm - N/A   Clear